Volver al catálogo

STARLINK-5198

ActivoComunicacionesVLEO
NORAD 54099·PAYLOAD·🇺🇸 United States

Lanzado Oct 20, 2022 desde Cape Canaveral Space Force Station

Loading…

Próximos Pases (próximas 24 horas)

TLE

ActualizadoSource: CelesTrak SupGP

Época: Sep 14, 2026, 13:42 UTC

1 54099C 22136BA  26257.57131944 -.00022001  00000+0 -13791-2 0  2573
2 54099  53.1591 205.1269 0001428  89.2825 322.2205 15.08861556    19

Sigue STARLINK-5198 en tiempo real con AllMySat

Download on the App Store